Simultaneous Nadir Overpasses (SNOs) Predictions

Prediction of SNOs between LANDSAT-8 and METOP-B Satellite Orbit:

Table of predicted SNOs for the next 14.0 days since TLE Epoch: 9/28/2019
Index Date (LANDSAT-8) Time (LANDSAT-8) Lat,Lon (LANDSAT-8) SZA (LANDSAT-8 ) Date (METOP-B) Time (METOP-B) Lat,Lon (METOP-B) SZA (METOP-B ) Distance(km) Time Diff (sec)
1 09/29/2019 14:44:21 -81.18, 179.83 94.01 09/29/2019 14:44:03 -81.18, 179.84 94.01 0.35 18
2 09/29/2019 15:33:47 81.18, -12.46 86.02 09/29/2019 15:34:42 81.19, -12.34 86.07 2.31 55
3 10/02/2019 10:18:36 -81.18,-113.73 92.89 10/02/2019 10:18:24 -81.17,-113.91 92.92 3.23 12
4 10/02/2019 11:08:02 81.18, 53.96 87.13 10/02/2019 11:09:03 81.19, 53.88 87.15 1.29 61
5 10/05/2019 05:52:52 -81.18, -47.31 91.79 10/05/2019 05:52:45 -81.18, -47.30 91.79 0.21 7
6 10/05/2019 06:42:17 81.20, 120.73 88.29 10/05/2019 06:43:23 81.20, 120.85 88.33 2.16 66
7 10/08/2019 00:38:28 79.77,-163.75 86.68 10/08/2019 00:37:15 80.17,-165.60 86.86 57.31 73
8 10/08/2019 01:27:08 -81.18, 19.09 90.70 10/08/2019 01:27:07 -81.17, 18.92 90.72 2.99 1
9 10/08/2019 02:16:33 81.20,-172.89 89.37 10/08/2019 02:17:45 81.20,-172.96 89.40 1.20 72
10 10/10/2019 20:11:56 81.17, -82.21 90.36 10/10/2019 20:10:46 81.17, -82.04 90.35 2.95 70




NCC Satellite Simultaneous Nadir Overpasses (SNOs) Prediction Service
